Home > Weather > Mount Pearl > Past weeks

Flag for Canada Weather for the Past 2 Weeks in Mount Pearl, Newfoundland and Labrador, Canada

Now
32 °F

Overcast.


Feels Like: 19 °F
Forecast: 28 / 35 °F
Wind: 24 mph from Southwest

Location: St. John's

Current Time: Feb 9, 2016 at 10:10:55 PM

Latest Report: Feb 9, 2016 at 9:30 PM


Visibility: 15 mi

Pressure: 29.42 "Hg

Humidity: 87%

Dew point: 28 °F

Location of Mount PearlLocation

Historic Weather in Mount Pearl — Graph

°F

Mount Pearl Temperature Yesterday

Maximum temperature yesterday: 28 °F (at 12:30 AM)
Minimum temperature yesterday: 18 °F (at 5:30 AM)
Average temperature yesterday: 21 °F

High & Low Weather Summary for the Past Weeks

 TemperatureHumidityPressure
High55 °F (Feb 6, 5:30 AM)100% (Jan 27, 11:30 AM)30.39 "Hg (Jan 27, 11:30 AM)
Low10 °F (Jan 26, 6:30 AM)54% (Feb 3, 2:30 PM)28.69 "Hg (Jan 30, 4:30 AM)
Average29 °F83%29.86 "Hg
* Reported Jan 25 8:30 PM — Feb 9 8:30 PM, Mount Pearl, Weather by CustomWeather, © 2016

Note: Actual official high and low records may vary slightly from our data, if they occured in-between our weather recording intervals... More about our weather records

Advertising

Mount Pearl Weather History for the Previous 24 Hours

 ConditionsComfort  
Time TempWeatherWind HumidityBarometerVisibility
8:30 PM
Tue, Feb 9
32 °FOvercast.21 mph87%29.44 "Hg15 mi
7:30 PM34 °FDrizzle. Low clouds.21 mph87%29.43 "Hg12 mi
6:30 PM34 °FDrizzle. Fog.20 mph87%29.41 "Hg5 mi
5:30 PM34 °FDrizzle. Fog.21 mph93%29.39 "Hg5 mi
4:30 PM32 °FIce fog.No wind93%29.37 "Hg0 mi
3:30 PM30 °FLight freezing rain. Ice fog.16 mph100%29.38 "Hg1 mi
2:30 PM30 °FLight freezing rain. Ice fog.22 mph100%29.42 "Hg1 mi
1:30 PM30 °FSnow. Ice fog.20 mph93%29.46 "Hg1 mi
12:30 PM30 °FSnow. Ice fog.31 mph93%29.51 "Hg1 mi
11:30 AM28 °FSnow. Ice fog.36 mph93%29.56 "Hg1 mi
10:30 AM28 °FSnow. Ice fog.36 mph93%29.60 "Hg1 mi
9:30 AM28 °FSnow. Ice fog.31 mph93%29.64 "Hg1 mi
8:30 AM28 °FHeavy snow. Ice fog.33 mph93%29.66 "Hg0 mi
7:30 AM28 °FSnow. Ice fog.28 mph93%29.71 "Hg1 mi
6:30 AM27 °FSnow. Ice fog.29 mph93%29.72 "Hg1 mi
5:30 AM27 °FLight snow. Low clouds.28 mph93%29.75 "Hg1 mi
4:30 AM27 °FLight snow. Low clouds.35 mph93%29.78 "Hg1 mi
3:30 AM25 °FLight snow. Ice fog.24 mph93%29.83 "Hg1 mi
2:30 AM25 °FLight snow. Ice fog.30 mph93%29.89 "Hg1 mi
1:30 AM25 °FLight snow. Ice fog.26 mph93%29.92 "Hg1 mi
12:30 AM25 °FSnow flurries. Overcast.28 mph86%29.96 "Hg8 mi
11:30 PM
Mon, Feb 8
25 °FOvercast.24 mph80%29.98 "Hg15 mi
10:30 PM23 °FOvercast.22 mph86%30.06 "Hg15 mi
Weather by CustomWeather, © 2016

See weather overviewHow to use our weather pages